Terminal Aerodrome Forecast
Issued by NWS

Home | Current Version | Previous Version | Text Only | Print | Product List | Glossary On
Versions: 1 2 3 4 5 6 7 8 9 10 11 12 13 14 15
000
FTUS45 KVEF 011120
TAFEED
TAF
KEED 011120Z 0112/0212 VRB06KT P6SM FEW250
     FM011600 16008KT P6SM SCT250
     FM011900 20013G19KT P6SM SCT250
     FM020300 20011KT P6SM SCT250=

USA.gov is the U.S. government's official web portal to all federal, state and local government web resources and services.